Time,TemperatureF,DewpointF,PressureIn,WindDirection,WindDirectionDegrees,WindSpeedMPH,WindSpeedGustMPH,Humidity,HourlyPrecipIn,Conditions,Clouds,dailyrainin,SoftwareType,DateUTC
2013-05-06 00:06:00,45.8,38.0,30.39,NW,326,1.0,2.0,74,0.00,,,0.00,weatherlink.com 1.10,2013-05-06 04:06:00,
2013-05-06 00:21:00,45.4,38.0,30.40,NW,326,1.0,2.0,75,0.00,,,0.00,weatherlink.com 1.10,2013-05-06 04:21:00,
2013-05-06 00:36:00,44.9,38.0,30.40,NW,326,0.0,1.0,76,0.00,,,0.00,weatherlink.com 1.10,2013-05-06 04:36:00,
2013-05-06 00:51:00,44.4,38.0,30.40,NW,326,0.0,1.0,77,0.00,,,0.00,weatherlink.com 1.10,2013-05-06 04:51:00,
2013-05-06 01:06:00,43.5,37.0,30.40,NW,326,0.0,2.0,78,0.00,,,0.00,weatherlink.com 1.10,2013-05-06 05:06:00,
2013-05-06 01:21:00,43.3,37.0,30.39,NW,326,1.0,2.0,78,0.00,,,0.00,weatherlink.com 1.10,2013-05-06 05:21:00,
2013-05-06 01:36:00,42.9,37.0,30.39,NW,326,1.0,2.0,79,0.00,,,0.00,weatherlink.com 1.10,2013-05-06 05:36:00,
2013-05-06 01:51:00,42.8,37.0,30.39,NW,326,1.0,2.0,80,0.00,,,0.00,weatherlink.com 1.10,2013-05-06 05:51:00,
2013-05-06 02:06:00,42.2,37.0,30.39,NW,326,1.0,2.0,81,0.00,,,0.00,weatherlink.com 1.10,2013-05-06 06:06:00,
2013-05-06 02:22:00,41.9,37.0,30.38,NW,326,2.0,2.0,83,0.00,,,0.00,weatherlink.com 1.10,2013-05-06 06:22:00,
2013-05-06 02:37:00,41.7,37.0,30.38,NW,326,1.0,2.0,83,0.00,,,0.00,weatherlink.com 1.10,2013-05-06 06:37:00,
2013-05-06 02:52:00,41.6,37.0,30.38,NW,326,1.0,2.0,83,0.00,,,0.00,weatherlink.com 1.10,2013-05-06 06:52:00,
2013-05-06 03:07:00,41.0,37.0,30.38,NW,326,1.0,2.0,84,0.00,,,0.00,weatherlink.com 1.10,2013-05-06 07:07:00,
2013-05-06 03:22:00,40.8,37.0,30.38,NW,326,0.0,2.0,85,0.00,,,0.00,weatherlink.com 1.10,2013-05-06 07:22:00,
2013-05-06 03:37:00,40.0,36.0,30.38,NW,326,0.0,1.0,86,0.00,,,0.00,weatherlink.com 1.10,2013-05-06 07:37:00,
2013-05-06 03:52:00,39.6,36.0,30.37,NW,326,1.0,1.0,87,0.00,,,0.00,weatherlink.com 1.10,2013-05-06 07:52:00,
2013-05-06 04:07:00,39.8,36.0,30.37,NW,326,0.0,1.0,87,0.00,,,0.00,weatherlink.com 1.10,2013-05-06 08:07:00,
2013-05-06 04:22:00,39.5,36.0,30.38,NW,326,0.0,1.0,87,0.00,,,0.00,weatherlink.com 1.10,2013-05-06 08:22:00,
2013-05-06 04:37:00,38.9,36.0,30.38,NW,326,0.0,1.0,88,0.00,,,0.00,weatherlink.com 1.10,2013-05-06 08:37:00,
2013-05-06 04:52:00,38.6,35.0,30.38,NW,326,1.0,2.0,87,0.00,,,0.00,weatherlink.com 1.10,2013-05-06 08:52:00,
2013-05-06 05:07:00,38.5,35.0,30.38,NW,326,0.0,1.0,87,0.00,,,0.00,weatherlink.com 1.10,2013-05-06 09:07:00,
2013-05-06 05:22:00,38.5,35.0,30.39,NW,326,0.0,2.0,87,0.00,,,0.00,weatherlink.com 1.10,2013-05-06 09:22:00,
2013-05-06 05:37:00,38.4,35.0,30.39,NW,326,1.0,1.0,88,0.00,,,0.00,weatherlink.com 1.10,2013-05-06 09:37:00,
2013-05-06 05:52:00,38.2,35.0,30.39,NW,326,2.0,2.0,88,0.00,,,0.00,weatherlink.com 1.10,2013-05-06 09:52:00,
2013-05-06 06:07:00,38.6,35.0,30.40,NNE,26,0.0,1.0,87,0.00,,,0.00,weatherlink.com 1.10,2013-05-06 10:07:00,
2013-05-06 06:22:00,38.1,35.0,30.40,NNE,26,1.0,1.0,89,0.00,,,0.00,weatherlink.com 1.10,2013-05-06 10:22:00,
2013-05-06 06:37:00,38.6,36.0,30.40,NNE,26,0.0,1.0,89,0.00,,,0.00,weatherlink.com 1.10,2013-05-06 10:37:00,
2013-05-06 06:52:00,39.5,37.0,30.41,NNE,26,0.0,0.0,89,0.00,,,0.00,weatherlink.com 1.10,2013-05-06 10:52:00,
2013-05-06 07:07:00,41.2,37.0,30.41,NNE,26,0.0,1.0,86,0.00,,,0.00,weatherlink.com 1.10,2013-05-06 11:07:00,
2013-05-06 07:22:00,42.3,38.0,30.41,SSE,155,2.0,3.0,83,0.00,,,0.00,weatherlink.com 1.10,2013-05-06 11:22:00,
2013-05-06 07:37:00,43.4,38.0,30.41,SW,224,1.0,2.0,82,0.00,,,0.00,weatherlink.com 1.10,2013-05-06 11:37:00,
2013-05-06 07:52:00,46.0,39.0,30.41,SSE,155,0.0,2.0,77,0.00,,,0.00,weatherlink.com 1.10,2013-05-06 11:52:00,
2013-05-06 08:07:00,47.4,40.0,30.41,South,169,0.0,4.0,75,0.00,,,0.00,weatherlink.com 1.10,2013-05-06 12:07:00,
2013-05-06 08:22:00,50.4,40.0,30.41,SW,231,0.0,4.0,68,0.00,,,0.00,weatherlink.com 1.10,2013-05-06 12:22:00,
2013-05-06 08:37:00,51.8,40.0,30.41,SW,219,3.0,6.0,65,0.00,,,0.00,weatherlink.com 1.10,2013-05-06 12:37:00,
2013-05-06 08:52:00,53.4,41.0,30.41,ENE,75,2.0,4.0,64,0.00,,,0.00,weatherlink.com 1.10,2013-05-06 12:52:00,
2013-05-06 09:07:00,55.6,40.0,30.41,SSW,207,0.0,5.0,56,0.00,,,0.00,weatherlink.com 1.10,2013-05-06 13:07:00,
2013-05-06 09:23:00,56.8,38.0,30.41,ESE,118,4.0,7.0,50,0.00,,,0.00,weatherlink.com 1.10,2013-05-06 13:23:00,
2013-05-06 09:38:00,58.3,38.0,30.41,SSE,166,3.0,7.0,48,0.00,,,0.00,weatherlink.com 1.10,2013-05-06 13:38:00,
2013-05-06 09:53:00,58.7,35.0,30.40,SSE,157,3.0,6.0,41,0.00,,,0.00,weatherlink.com 1.10,2013-05-06 13:53:00,
2013-05-06 10:08:00,60.1,31.0,30.40,South,169,5.0,8.0,33,0.00,,,0.00,weatherlink.com 1.10,2013-05-06 14:08:00,
2013-05-06 10:23:00,60.5,30.0,30.40,NNW,336,0.0,7.0,31,0.00,,,0.00,weatherlink.com 1.10,2013-05-06 14:23:00,
2013-05-06 10:38:00,61.8,34.0,30.40,SSW,212,5.0,14.0,35,0.00,,,0.00,weatherlink.com 1.10,2013-05-06 14:38:00,
2013-05-06 10:53:00,62.9,35.0,30.40,South,172,8.0,8.0,36,0.00,,,0.00,weatherlink.com 1.10,2013-05-06 14:53:00,
2013-05-06 11:08:00,63.6,36.0,30.40,East,100,4.0,8.0,36,0.00,,,0.00,weatherlink.com 1.10,2013-05-06 15:08:00,
2013-05-06 11:23:00,65.8,41.0,30.39,SW,229,2.0,8.0,40,0.00,,,0.00,weatherlink.com 1.10,2013-05-06 15:23:00,
2013-05-06 11:39:00,66.1,38.0,30.39,SW,224,3.0,9.0,36,0.00,,,0.00,weatherlink.com 1.10,2013-05-06 15:39:00,
2013-05-06 11:53:00,66.9,39.0,30.39,SSW,204,4.0,9.0,36,0.00,,,0.00,weatherlink.com 1.10,2013-05-06 15:53:00,
2013-05-06 12:08:00,66.9,36.0,30.38,South,187,0.0,9.0,32,0.00,,,0.00,weatherlink.com 1.10,2013-05-06 16:08:00,
2013-05-06 12:23:00,68.2,39.0,30.37,SSE,165,3.0,8.0,34,0.00,,,0.00,weatherlink.com 1.10,2013-05-06 16:23:00,
2013-05-06 12:38:00,69.3,39.0,30.37,SW,224,3.0,8.0,33,0.00,,,0.00,weatherlink.com 1.10,2013-05-06 16:38:00,
2013-05-06 12:53:00,69.2,38.0,30.36,SW,222,3.0,10.0,32,0.00,,,0.00,weatherlink.com 1.10,2013-05-06 16:53:00,
2013-05-06 13:08:00,69.6,36.0,30.36,SSE,159,5.0,10.0,29,0.00,,,0.00,weatherlink.com 1.10,2013-05-06 17:08:00,
2013-05-06 13:23:00,70.1,33.0,30.35,SW,223,4.0,9.0,25,0.00,,,0.00,weatherlink.com 1.10,2013-05-06 17:23:00,
2013-05-06 13:38:00,70.3,36.0,30.35,South,169,5.0,12.0,28,0.00,,,0.00,weatherlink.com 1.10,2013-05-06 17:38:00,
2013-05-06 13:53:00,70.7,39.0,30.34,South,173,2.0,9.0,31,0.00,,,0.00,weatherlink.com 1.10,2013-05-06 17:53:00,
2013-05-06 14:08:00,70.8,36.0,30.34,South,187,4.0,12.0,28,0.00,,,0.00,weatherlink.com 1.10,2013-05-06 18:08:00,
2013-05-06 14:23:00,71.6,37.0,30.33,SW,232,0.0,8.0,28,0.00,,,0.00,weatherlink.com 1.10,2013-05-06 18:23:00,
2013-05-06 14:38:00,71.8,38.0,30.33,SSE,148,4.0,8.0,29,0.00,,,0.00,weatherlink.com 1.10,2013-05-06 18:38:00,
2013-05-06 14:53:00,71.7,36.0,30.33,South,188,4.0,9.0,27,0.00,,,0.00,weatherlink.com 1.10,2013-05-06 18:53:00,
2013-05-06 15:08:00,71.1,35.0,30.32,SSW,197,3.0,9.0,27,0.00,,,0.00,weatherlink.com 1.10,2013-05-06 19:08:00,
2013-05-06 15:23:00,71.4,40.0,30.32,SSW,211,4.0,8.0,32,0.00,,,0.00,weatherlink.com 1.10,2013-05-06 19:23:00,
2013-05-06 15:39:00,71.7,39.0,30.31,SW,219,6.0,9.0,30,0.00,,,0.00,weatherlink.com 1.10,2013-05-06 19:39:00,
2013-05-06 15:54:00,71.2,39.0,30.31,ESE,121,5.0,10.0,31,0.00,,,0.00,weatherlink.com 1.10,2013-05-06 19:54:00,
2013-05-06 16:09:00,71.5,39.0,30.30,ESE,117,3.0,8.0,31,0.00,,,0.00,weatherlink.com 1.10,2013-05-06 20:09:00,
2013-05-06 16:24:00,70.8,40.0,30.29,SSW,211,4.0,10.0,33,0.00,,,0.00,weatherlink.com 1.10,2013-05-06 20:24:00,
2013-05-06 16:39:00,70.6,39.0,30.30,SW,229,2.0,7.0,32,0.00,,,0.00,weatherlink.com 1.10,2013-05-06 20:39:00,
2013-05-06 16:54:00,69.6,40.0,30.29,SE,131,4.0,11.0,34,0.00,,,0.00,weatherlink.com 1.10,2013-05-06 20:54:00,
2013-05-06 17:09:00,69.1,40.0,30.29,SW,214,1.0,10.0,35,0.00,,,0.00,weatherlink.com 1.10,2013-05-06 21:09:00,
2013-05-06 17:24:00,68.6,40.0,30.29,SSW,194,4.0,9.0,36,0.00,,,0.00,weatherlink.com 1.10,2013-05-06 21:24:00,
2013-05-06 17:39:00,67.6,41.0,30.30,SW,226,3.0,7.0,38,0.00,,,0.00,weatherlink.com 1.10,2013-05-06 21:39:00,
2013-05-06 17:54:00,66.3,41.0,30.29,SE,127,4.0,8.0,40,0.00,,,0.00,weatherlink.com 1.10,2013-05-06 21:54:00,
2013-05-06 18:09:00,65.7,41.0,30.29,ENE,78,3.0,7.0,40,0.00,,,0.00,weatherlink.com 1.10,2013-05-06 22:09:00,
2013-05-06 18:24:00,65.3,41.0,30.29,SE,124,3.0,9.0,42,0.00,,,0.00,weatherlink.com 1.10,2013-05-06 22:24:00,
2013-05-06 18:39:00,64.5,42.0,30.30,SSE,157,2.0,8.0,44,0.00,,,0.00,weatherlink.com 1.10,2013-05-06 22:39:00,
2013-05-06 18:54:00,63.7,41.0,30.30,SW,224,1.0,7.0,44,0.00,,,0.00,weatherlink.com 1.10,2013-05-06 22:54:00,
2013-05-06 19:09:00,63.0,42.0,30.30,SW,220,1.0,7.0,46,0.00,,,0.00,weatherlink.com 1.10,2013-05-06 23:09:00,
2013-05-06 19:24:00,62.3,42.0,30.31,SW,229,1.0,10.0,47,0.00,,,0.00,weatherlink.com 1.10,2013-05-06 23:24:00,
2013-05-06 19:39:00,61.7,42.0,30.31,SW,221,3.0,6.0,49,0.00,,,0.00,weatherlink.com 1.10,2013-05-06 23:39:00,
2013-05-06 19:54:00,61.2,42.0,30.31,SE,128,3.0,5.0,50,0.00,,,0.00,weatherlink.com 1.10,2013-05-06 23:54:00,
2013-05-06 20:09:00,60.5,42.0,30.32,ENE,63,0.0,5.0,51,0.00,,,0.00,weatherlink.com 1.10,2013-05-07 00:09:00,
2013-05-06 20:24:00,59.2,42.0,30.32,South,187,1.0,4.0,53,0.00,,,0.00,weatherlink.com 1.10,2013-05-07 00:24:00,
2013-05-06 20:39:00,58.7,42.0,30.33,NNW,332,2.0,3.0,55,0.00,,,0.00,weatherlink.com 1.10,2013-05-07 00:39:00,
2013-05-06 20:54:00,58.1,43.0,30.33,NE,41,0.0,4.0,57,0.00,,,0.00,weatherlink.com 1.10,2013-05-07 00:54:00,
2013-05-06 21:09:00,57.4,43.0,30.34,SSE,153,0.0,2.0,59,0.00,,,0.00,weatherlink.com 1.10,2013-05-07 01:09:00,
2013-05-06 21:24:00,57.5,44.0,30.34,SW,219,2.0,4.0,60,0.00,,,0.00,weatherlink.com 1.10,2013-05-07 01:24:00,
2013-05-06 21:39:00,57.1,44.0,30.35,SSE,150,0.0,5.0,63,0.00,,,0.00,weatherlink.com 1.10,2013-05-07 01:39:00,
2013-05-06 21:54:00,56.9,46.0,30.35,South,191,0.0,3.0,66,0.00,,,0.00,weatherlink.com 1.10,2013-05-07 01:54:00,
2013-05-06 22:09:00,56.1,46.0,30.35,SW,224,0.0,2.0,69,0.00,,,0.00,weatherlink.com 1.10,2013-05-07 02:09:00,
2013-05-06 22:24:00,55.8,47.0,30.35,SSE,168,3.0,3.0,72,0.00,,,0.00,weatherlink.com 1.10,2013-05-07 02:24:00,
2013-05-06 22:39:00,55.1,47.0,30.35,East,84,0.0,3.0,75,0.00,,,0.00,weatherlink.com 1.10,2013-05-07 02:39:00,
2013-05-06 22:54:00,54.8,48.0,30.35,SW,214,0.0,3.0,77,0.00,,,0.00,weatherlink.com 1.10,2013-05-07 02:54:00,
2013-05-06 23:09:00,54.0,47.0,30.35,WNW,300,0.0,3.0,78,0.00,,,0.00,weatherlink.com 1.10,2013-05-07 03:09:00,
2013-05-06 23:24:00,53.1,47.0,30.35,NW,322,1.0,2.0,81,0.00,,,0.00,weatherlink.com 1.10,2013-05-07 03:24:00,
2013-05-06 23:39:00,52.7,47.0,30.34,NNW,333,2.0,2.0,82,0.00,,,0.00,weatherlink.com 1.10,2013-05-07 03:39:00,
2013-05-06 23:54:00,52.1,47.0,30.35,NW,314,1.0,2.0,84,0.00,,,0.00,weatherlink.com 1.10,2013-05-07 03:54:00,